EZY28QN LGAV-EGPH

Flight info

Callsign EZY28QN
Flight time N/A
Altitude 36000
Route KOR UL53 IXONI DCT VARDI DCT DIMIS DCT VRANA DCT NIVES DCT GORPA DCT SIMBA DCT GASKA/N0450F380 DCT MAPOX DCT AMGOD L602 NALAX L46 ESHIN N110 ERKIT DCT AGPED
Aircraft A320/M-SDE3FGHIRWY/LB1

Departure

Time N/A
Airport Athens Eleftherios Venizelos International Airport (LGAV)

Arrival

Time 2026-05-07 13:29
Airport Edinburgh Airport (EGPH)
Time Latitude Longitude Altitude Speed Heading
2026-05-07 11:51 50.18919 10.50045 35994 ft 445 kts 317°
2026-05-07 11:51 50.23587 10.43683 36000 ft 446 kts 317°
2026-05-07 11:52 50.28268 10.37302 35999 ft 445 kts 317°
2026-05-07 11:52 50.32145 10.32022 35996 ft 445 kts 317°
2026-05-07 11:53 50.36597 10.25316 36002 ft 443 kts 309°
2026-05-07 11:53 50.40605 10.17981 35998 ft 443 kts 309°
2026-05-07 11:54 50.44621 10.10632 36003 ft 444 kts 309°
2026-05-07 11:54 50.48631 10.03271 36014 ft 444 kts 309°
2026-05-07 11:55 50.52633 9.95899 36013 ft 443 kts 309°
2026-05-07 11:55 50.56632 9.88520 36016 ft 443 kts 309°
2026-05-07 11:56 50.60621 9.81141 36021 ft 443 kts 309°
2026-05-07 11:56 50.64605 9.73731 36024 ft 443 kts 309°
2026-05-07 11:57 50.68581 9.66316 36029 ft 443 kts 309°
2026-05-07 11:57 50.72556 9.58893 36029 ft 443 kts 309°
2026-05-07 11:58 50.76530 9.51445 36029 ft 443 kts 309°
2026-05-07 11:58 50.80492 9.43993 36035 ft 443 kts 309°
2026-05-07 11:59 50.84460 9.36521 36040 ft 443 kts 309°
2026-05-07 11:59 50.88424 9.29040 36040 ft 443 kts 309°
2026-05-07 12:00 50.92368 9.21558 36040 ft 443 kts 308°
2026-05-07 12:00 50.96311 9.14048 36037 ft 442 kts 308°
2026-05-07 12:01 51.00247 9.06543 36037 ft 442 kts 308°
2026-05-07 12:01 51.04184 8.99022 36038 ft 442 kts 308°
2026-05-07 12:02 51.08132 8.91447 36040 ft 442 kts 308°
2026-05-07 12:02 51.12026 8.83960 36047 ft 442 kts 308°
2026-05-07 12:03 51.15539 8.75893 36049 ft 440 kts 301°
2026-05-07 12:03 51.18780 8.67685 36053 ft 440 kts 301°
2026-05-07 12:04 51.22058 8.59369 36059 ft 440 kts 301°
2026-05-07 12:04 51.25282 8.51165 36061 ft 440 kts 301°
2026-05-07 12:05 51.28523 8.42887 36059 ft 439 kts 301°
2026-05-07 12:05 51.31749 8.34614 36064 ft 439 kts 301°
2026-05-07 12:06 51.34969 8.26318 36067 ft 439 kts 301°
2026-05-07 12:06 51.38161 8.18064 36068 ft 439 kts 301°
2026-05-07 12:07 51.41396 8.09704 36066 ft 439 kts 301°
2026-05-07 12:07 51.44604 8.01381 36061 ft 439 kts 301°
2026-05-07 12:08 51.47804 7.93042 36063 ft 439 kts 301°
2026-05-07 12:08 51.50992 7.84696 36064 ft 439 kts 301°
2026-05-07 12:09 51.54184 7.76333 36062 ft 439 kts 301°
2026-05-07 12:09 51.57368 7.67971 36061 ft 439 kts 301°
2026-05-07 12:10 51.60547 7.59587 36060 ft 439 kts 300°
2026-05-07 12:10 51.63708 7.51201 36065 ft 438 kts 300°
2026-05-07 12:11 51.66865 7.42796 36067 ft 438 kts 300°
2026-05-07 12:11 51.70013 7.34382 36069 ft 438 kts 300°
2026-05-07 12:12 51.73158 7.25976 36069 ft 438 kts 300°
2026-05-07 12:12 51.76308 7.17551 36067 ft 438 kts 300°
2026-05-07 12:13 51.79438 7.09118 36065 ft 438 kts 300°
2026-05-07 12:13 51.82564 7.00657 36065 ft 438 kts 300°
2026-05-07 12:14 51.85683 6.92207 36059 ft 438 kts 300°
2026-05-07 12:14 51.88806 6.83733 36057 ft 438 kts 300°
2026-05-07 12:15 51.91918 6.75255 36055 ft 438 kts 300°
2026-05-07 12:15 51.95012 6.66774 36054 ft 438 kts 300°
2026-05-07 12:16 51.98108 6.58264 36049 ft 438 kts 299°
2026-05-07 12:16 52.01192 6.49752 36056 ft 438 kts 299°
2026-05-07 12:17 52.04275 6.41228 36057 ft 438 kts 299°
2026-05-07 12:17 52.07350 6.32683 36057 ft 438 kts 299°
2026-05-07 12:18 52.10425 6.24130 36056 ft 438 kts 299°
2026-05-07 12:18 52.13490 6.15577 36055 ft 438 kts 299°
2026-05-07 12:19 52.16543 6.07006 36056 ft 438 kts 299°
2026-05-07 12:19 52.19596 5.98413 36058 ft 438 kts 299°
2026-05-07 12:20 52.22641 5.89804 36059 ft 438 kts 298°
2026-05-07 12:20 52.25680 5.81187 36064 ft 438 kts 298°
2026-05-07 12:21 52.28722 5.72571 36076 ft 438 kts 298°
2026-05-07 12:21 52.31764 5.63929 36081 ft 439 kts 298°
2026-05-07 12:22 52.34783 5.55274 36087 ft 438 kts 298°
2026-05-07 12:22 52.37790 5.46609 36084 ft 438 kts 298°
2026-05-07 12:23 52.40804 5.37927 36085 ft 438 kts 298°
2026-05-07 12:23 52.43596 5.29863 36082 ft 439 kts 298°
2026-05-07 12:24 52.46598 5.21148 36085 ft 439 kts 298°
2026-05-07 12:24 52.49594 5.12419 36084 ft 439 kts 298°
2026-05-07 12:25 52.52589 5.03680 36085 ft 439 kts 298°
2026-05-07 12:25 52.55578 4.94920 36082 ft 440 kts 298°
2026-05-07 12:26 52.58562 4.86133 36077 ft 440 kts 298°
2026-05-07 12:26 52.61541 4.77337 36089 ft 441 kts 298°
2026-05-07 12:27 52.64526 4.68506 36092 ft 441 kts 298°
2026-05-07 12:27 52.67518 4.59598 36094 ft 442 kts 298°
2026-05-07 12:28 52.70470 4.50774 36097 ft 443 kts 298°
2026-05-07 12:28 52.73462 4.41823 36098 ft 443 kts 298°
2026-05-07 12:29 52.76429 4.32914 36099 ft 443 kts 298°
2026-05-07 12:29 52.78888 4.25476 36086 ft 444 kts 298°
2026-05-07 12:30 52.81850 4.16510 36092 ft 444 kts 298°
2026-05-07 12:30 52.84814 4.07538 36092 ft 445 kts 298°
2026-05-07 12:31 52.87776 3.98512 36096 ft 446 kts 298°
2026-05-07 12:31 52.90727 3.89468 36112 ft 447 kts 298°
2026-05-07 12:32 52.93681 3.80386 36101 ft 448 kts 298°
2026-05-07 12:32 52.96625 3.71297 36111 ft 448 kts 298°
2026-05-07 12:33 53.01097 3.57677 36119 ft 448 kts 299°
2026-05-07 12:33 53.04111 3.48607 36119 ft 448 kts 299°
2026-05-07 12:34 53.07102 3.39529 36128 ft 448 kts 298°
2026-05-07 12:34 53.09902 3.30274 36130 ft 448 kts 290°
2026-05-07 12:35 53.11427 3.20251 36118 ft 448 kts 282°
2026-05-07 12:35 53.12768 3.10119 36121 ft 448 kts 282°
2026-05-07 12:36 53.14116 2.99975 36120 ft 449 kts 282°
2026-05-07 12:36 53.15452 2.89832 36119 ft 449 kts 282°
2026-05-07 12:37 53.16774 2.79667 36116 ft 449 kts 282°
2026-05-07 12:37 53.18082 2.69509 36121 ft 448 kts 282°
2026-05-07 12:38 53.19380 2.59329 36120 ft 449 kts 282°
2026-05-07 12:38 53.20672 2.49139 36119 ft 449 kts 282°
2026-05-07 12:39 53.21964 2.38963 36126 ft 449 kts 282°
2026-05-07 12:39 53.23246 2.28765 36130 ft 449 kts 282°
2026-05-07 12:40 53.24516 2.18560 36131 ft 449 kts 281°
2026-05-07 12:40 53.25769 2.08356 36127 ft 449 kts 281°
2026-05-07 12:41 53.27015 1.98149 36122 ft 449 kts 281°
2026-05-07 12:41 53.28254 1.87922 36129 ft 449 kts 281°
2026-05-07 12:42 53.29487 1.77703 36125 ft 449 kts 281°
2026-05-07 12:42 53.30722 1.67462 36126 ft 449 kts 281°
2026-05-07 12:43 53.31938 1.57228 36128 ft 449 kts 281°
2026-05-07 12:43 53.33169 1.46990 36127 ft 449 kts 282°
2026-05-07 12:44 53.34632 1.36848 36114 ft 449 kts 284°
2026-05-07 12:44 53.36182 1.26743 36118 ft 449 kts 284°
2026-05-07 12:45 53.37679 1.16597 36108 ft 448 kts 283°
2026-05-07 12:45 53.39122 1.06432 36106 ft 449 kts 283°
2026-05-07 12:46 53.40549 0.96259 36100 ft 449 kts 283°
2026-05-07 12:46 53.41971 0.86076 36102 ft 449 kts 283°
2026-05-07 12:47 53.43402 0.75873 36102 ft 449 kts 283°
2026-05-07 12:47 53.44828 0.65672 36108 ft 449 kts 283°
2026-05-07 12:48 53.46241 0.55475 36093 ft 449 kts 282°
2026-05-07 12:48 53.47643 0.45196 36089 ft 449 kts 282°
2026-05-07 12:49 53.49035 0.34974 36084 ft 449 kts 282°
2026-05-07 12:49 53.50406 0.24816 36077 ft 449 kts 282°
2026-05-07 12:50 53.51782 0.14522 36073 ft 449 kts 282°
2026-05-07 12:50 53.53144 0.04292 36077 ft 449 kts 282°
2026-05-07 12:51 53.54502 -0.05945 36077 ft 449 kts 282°
2026-05-07 12:51 53.55846 -0.16179 36080 ft 448 kts 282°
2026-05-07 12:52 53.57807 -0.26111 36077 ft 449 kts 298°
2026-05-07 12:52 53.61550 -0.34381 36075 ft 449 kts 317°
2026-05-07 12:53 53.66624 -0.40605 36069 ft 449 kts 326°
2026-05-07 12:53 53.71747 -0.46522 36065 ft 449 kts 325°
2026-05-07 12:54 53.76935 -0.52532 36065 ft 449 kts 325°
2026-05-07 12:54 53.82098 -0.58513 36064 ft 450 kts 325°
2026-05-07 12:55 53.87250 -0.64508 36055 ft 449 kts 325°
2026-05-07 12:55 53.92398 -0.70530 36053 ft 449 kts 324°
2026-05-07 12:56 53.97540 -0.76558 36053 ft 449 kts 324°
2026-05-07 12:56 54.02686 -0.82613 36051 ft 449 kts 325°
2026-05-07 12:57 54.07970 -0.88296 36047 ft 450 kts 329°
2026-05-07 12:57 54.13419 -0.93545 36048 ft 450 kts 330°
2026-05-07 12:58 54.18875 -0.98811 36046 ft 450 kts 329°
2026-05-07 12:58 54.24280 -1.04208 36041 ft 450 kts 328°
2026-05-07 12:59 54.29675 -1.09684 36039 ft 451 kts 328°
2026-05-07 12:59 54.35068 -1.15149 36039 ft 451 kts 328°
2026-05-07 13:00 54.40476 -1.20627 36041 ft 451 kts 328°
2026-05-07 13:00 54.45878 -1.26105 36043 ft 451 kts 328°
2026-05-07 13:01 54.51269 -1.31606 36049 ft 451 kts 328°
2026-05-07 13:01 54.56668 -1.37121 36038 ft 451 kts 328°
2026-05-07 13:02 54.59363 -1.39884 35781 ft 451 kts 327°
2026-05-07 13:02 54.62064 -1.42658 35520 ft 451 kts 327°
2026-05-07 13:02 54.64764 -1.45436 35275 ft 452 kts 328°
2026-05-07 13:02 54.67465 -1.48218 35037 ft 452 kts 328°
2026-05-07 13:03 54.70167 -1.51006 34777 ft 452 kts 328°
2026-05-07 13:03 54.72870 -1.53801 34531 ft 453 kts 328°
2026-05-07 13:03 54.75568 -1.56595 34129 ft 453 kts 328°
2026-05-07 13:03 54.78294 -1.59421 33276 ft 456 kts 328°
2026-05-07 13:04 54.80164 -1.61361 32916 ft 451 kts 327°
2026-05-07 13:04 54.82839 -1.64139 32350 ft 447 kts 327°
2026-05-07 13:04 54.85496 -1.66899 31749 ft 443 kts 327°
2026-05-07 13:04 54.88129 -1.69638 31180 ft 440 kts 327°
2026-05-07 13:05 54.90743 -1.72363 30617 ft 436 kts 327°
2026-05-07 13:05 54.93337 -1.75072 30036 ft 433 kts 327°
2026-05-07 13:05 54.95903 -1.77756 29433 ft 429 kts 327°
2026-05-07 13:05 54.98444 -1.80420 28885 ft 424 kts 327°
2026-05-07 13:06 55.00958 -1.83058 28343 ft 419 kts 327°
2026-05-07 13:06 55.03440 -1.85669 27799 ft 415 kts 326°
2026-05-07 13:06 55.05896 -1.88262 27290 ft 410 kts 326°
2026-05-07 13:06 55.08317 -1.90824 26782 ft 405 kts 326°
2026-05-07 13:07 55.10611 -1.93613 26291 ft 398 kts 317°
2026-05-07 13:07 55.12546 -1.96984 26014 ft 392 kts 307°
2026-05-07 13:07 55.13637 -1.99483 25789 ft 389 kts 301°
2026-05-07 13:07 55.15022 -2.03518 25319 ft 385 kts 297°
2026-05-07 13:08 55.16357 -2.07554 24823 ft 383 kts 297°
2026-05-07 13:08 55.17687 -2.11578 24346 ft 381 kts 297°
2026-05-07 13:08 55.19003 -2.15574 23866 ft 378 kts 297°
2026-05-07 13:08 55.20312 -2.19565 23367 ft 376 kts 297°
2026-05-07 13:09 55.21605 -2.23526 22807 ft 374 kts 297°
2026-05-07 13:09 55.22893 -2.27469 22261 ft 372 kts 297°
2026-05-07 13:09 55.24177 -2.31398 21733 ft 370 kts 297°
2026-05-07 13:09 55.25452 -2.35308 21209 ft 369 kts 297°
2026-05-07 13:10 55.26717 -2.39201 20699 ft 367 kts 297°
2026-05-07 13:10 55.27976 -2.43090 20191 ft 366 kts 296°
2026-05-07 13:10 55.29228 -2.46965 19696 ft 364 kts 296°
2026-05-07 13:10 55.30472 -2.50813 19187 ft 357 kts 297°
2026-05-07 13:11 55.31683 -2.54552 18713 ft 351 kts 296°
2026-05-07 13:11 55.32883 -2.58260 18234 ft 347 kts 296°
2026-05-07 13:11 55.34071 -2.61936 17688 ft 344 kts 296°
2026-05-07 13:11 55.35243 -2.65576 17151 ft 341 kts 296°
2026-05-07 13:12 55.36403 -2.69186 16611 ft 338 kts 296°
2026-05-07 13:12 55.37552 -2.72766 16107 ft 335 kts 296°
2026-05-07 13:12 55.38688 -2.76312 15588 ft 331 kts 296°
2026-05-07 13:12 55.39814 -2.79840 15082 ft 329 kts 295°
2026-05-07 13:13 55.40928 -2.83335 14588 ft 325 kts 295°
2026-05-07 13:13 55.42026 -2.86779 14106 ft 319 kts 295°
2026-05-07 13:13 55.43095 -2.90139 13599 ft 310 kts 295°
2026-05-07 13:13 55.44135 -2.93405 13056 ft 301 kts 295°
2026-05-07 13:14 55.45211 -2.96517 12540 ft 297 kts 303°
2026-05-07 13:14 55.46672 -2.99103 12011 ft 302 kts 319°
2026-05-07 13:14 55.48507 -3.00936 11510 ft 307 kts 335°
2026-05-07 13:14 55.50548 -3.02090 11113 ft 308 kts 339°
2026-05-07 13:15 55.52592 -3.03211 10738 ft 307 kts 339°
2026-05-07 13:15 55.54602 -3.04320 10367 ft 299 kts 339°
2026-05-07 13:15 55.56580 -3.05413 9993 ft 296 kts 339°
2026-05-07 13:15 55.58547 -3.06507 9606 ft 296 kts 339°
2026-05-07 13:16 55.60504 -3.07599 9199 ft 295 kts 339°
2026-05-07 13:16 55.62455 -3.08686 8793 ft 293 kts 339°
2026-05-07 13:16 55.64353 -3.09950 8400 ft 288 kts 326°
2026-05-07 13:16 55.65576 -3.11625 8090 ft 280 kts 308°
2026-05-07 13:17 55.66522 -3.14532 7701 ft 270 kts 286°
2026-05-07 13:17 55.67159 -3.17650 7326 ft 269 kts 286°
2026-05-07 13:17 55.67854 -3.20714 6933 ft 267 kts 285°
2026-05-07 13:17 55.68362 -3.23848 6557 ft 263 kts 281°
2026-05-07 13:18 55.69181 -3.26758 6173 ft 269 kts 305°
2026-05-07 13:18 55.70558 -3.28723 5800 ft 276 kts 330°
2026-05-07 13:18 55.72443 -3.29517 5407 ft 284 kts 359°
2026-05-07 13:18 55.74357 -3.28693 5050 ft 286 kts 29°
2026-05-07 13:19 55.75855 -3.26413 5006 ft 287 kts 53°
2026-05-07 13:19 55.77073 -3.23607 5002 ft 287 kts 54°
2026-05-07 13:19 55.78295 -3.20744 5002 ft 284 kts 54°
2026-05-07 13:19 55.79436 -3.18060 5002 ft 269 kts 54°
2026-05-07 13:20 55.80554 -3.15421 5007 ft 266 kts 54°
2026-05-07 13:20 55.81662 -3.12793 5009 ft 266 kts 55°
2026-05-07 13:20 55.82771 -3.10164 5004 ft 266 kts 55°
2026-05-07 13:20 55.83910 -3.07539 5007 ft 265 kts 49°
2026-05-07 13:21 55.85304 -3.05468 5009 ft 266 kts 30°
2026-05-07 13:21 55.87020 -3.04176 4872 ft 264 kts 12°
2026-05-07 13:21 55.88819 -3.03588 4615 ft 262 kts
2026-05-07 13:21 55.90603 -3.03032 4372 ft 258 kts
2026-05-07 13:22 55.92353 -3.02477 4130 ft 253 kts
2026-05-07 13:22 55.94047 -3.01963 3909 ft 248 kts
2026-05-07 13:22 55.95755 -3.01995 3671 ft 239 kts 349°
2026-05-07 13:22 55.97390 -3.02388 3460 ft 235 kts 349°
2026-05-07 13:23 55.99005 -3.02764 3213 ft 233 kts 349°
2026-05-07 13:23 56.00610 -3.03133 3039 ft 232 kts 348°
2026-05-07 13:23 56.02030 -3.04144 3004 ft 210 kts 313°
2026-05-07 13:23 56.02765 -3.06182 3001 ft 187 kts 280°
2026-05-07 13:24 56.03089 -3.08405 3004 ft 183 kts 278°
2026-05-07 13:24 56.03285 -3.10606 3004 ft 177 kts 264°
2026-05-07 13:24 56.03115 -3.12738 3006 ft 172 kts 248°
2026-05-07 13:24 56.02595 -3.14626 2997 ft 170 kts 237°
2026-05-07 13:25 56.01990 -3.16477 2716 ft 175 kts 236°
2026-05-07 13:25 56.01375 -3.18325 2442 ft 170 kts 236°
2026-05-07 13:25 56.00788 -3.20080 2221 ft 158 kts 236°
2026-05-07 13:25 56.00244 -3.21703 1994 ft 146 kts 235°
2026-05-07 13:26 55.99742 -3.23198 1807 ft 133 kts 234°
2026-05-07 13:26 55.99280 -3.24574 1592 ft 126 kts 235°
2026-05-07 13:26 55.98830 -3.25907 1469 ft 125 kts 235°
2026-05-07 13:26 55.98380 -3.27231 1296 ft 124 kts 236°
2026-05-07 13:27 55.97933 -3.28560 1088 ft 127 kts 236°
2026-05-07 13:27 55.97481 -3.29895 936 ft 124 kts 235°
2026-05-07 13:27 55.97033 -3.31222 750 ft 125 kts 236°
2026-05-07 13:27 55.96586 -3.32552 580 ft 125 kts 236°
2026-05-07 13:28 55.96138 -3.33886 396 ft 126 kts 236°
2026-05-07 13:28 55.95692 -3.35210 220 ft 123 kts 239°
2026-05-07 13:28 55.95252 -3.36502 112 ft 114 kts 239°
2026-05-07 13:28 55.94938 -3.37432 112 ft 62 kts 239°
2026-05-07 13:29 55.94806 -3.37825 115 ft 12 kts 239°
2026-05-07 13:29 55.94795 -3.37858 113 ft 4 kts 239°
2026-05-07 13:29 55.94771 -3.37931 114 ft 10 kts 239°
2026-05-07 13:29 55.94707 -3.38052 113 ft 17 kts 190°
2026-05-07 13:30 55.94634 -3.37996 112 ft 9 kts 148°
2026-05-07 13:30 55.94589 -3.37896 113 ft 14 kts 80°
2026-05-07 13:30 55.94635 -3.37753 114 ft 15 kts 58°
2026-05-07 13:30 55.94698 -3.37566 114 ft 17 kts 59°
2026-05-07 13:31 55.94765 -3.37369 115 ft 17 kts 58°
2026-05-07 13:31 55.94824 -3.37196 115 ft 16 kts 59°
2026-05-07 13:31 55.94893 -3.36990 113 ft 17 kts 58°
2026-05-07 13:31 55.94951 -3.36822 114 ft 15 kts 58°
2026-05-07 13:32 55.95011 -3.36644 115 ft 17 kts 59°
2026-05-07 13:32 55.95069 -3.36473 114 ft 13 kts 59°
2026-05-07 13:32 55.95118 -3.36330 113 ft 13 kts 59°
2026-05-07 13:32 55.95128 -3.36188 115 ft 12 kts 109°
2026-05-07 13:33 55.95102 -3.36047 116 ft 12 kts 108°
2026-05-07 13:33 55.95069 -3.35913 114 ft 14 kts 120°
2026-05-07 13:33 55.95011 -3.35834 113 ft 13 kts 191°
2026-05-07 13:33 55.94953 -3.35862 116 ft 9 kts 170°
2026-05-07 13:34 55.94929 -3.35839 113 ft 4 kts 140°
2026-05-07 13:34 55.94860 -3.35862 114 ft 6 kts 206°
2026-05-07 13:34 55.94849 -3.35871 114 ft 0 kts 207°
2026-05-07 13:35 55.94848 -3.35872 114 ft 0 kts 207°